TimeEST,TemperatureF,Dew PointF,Humidity,Sea Level PressureIn,VisibilityMPH,Wind Direction,Wind SpeedMPH,Gust SpeedMPH,PrecipitationIn,Events,Conditions,WindDirDegrees,DateUTC
12:53 AM,41.0,30.9,67,29.83,10.0,West,8.1,-,N/A,,Clear,280,2012-11-04 04:53:00
1:53 AM,39.9,30.9,70,29.83,10.0,West,9.2,-,N/A,,Clear,280,2012-11-04 05:53:00
1:53 AM,39.9,30.9,70,29.83,10.0,WNW,11.5,16.1,N/A,,Clear,290,2012-11-04 06:53:00
2:53 AM,39.0,30.0,70,29.83,10.0,WNW,9.2,-,N/A,,Clear,300,2012-11-04 07:53:00
3:53 AM,37.9,30.0,73,29.84,10.0,WNW,9.2,-,N/A,,Clear,300,2012-11-04 08:53:00
4:53 AM,37.9,30.0,73,29.85,10.0,WNW,11.5,-,N/A,,Clear,300,2012-11-04 09:53:00
5:53 AM,37.9,30.0,73,29.86,10.0,WNW,9.2,-,N/A,,Clear,300,2012-11-04 10:53:00
6:53 AM,39.0,30.9,73,29.88,10.0,WNW,10.4,-,N/A,,Clear,300,2012-11-04 11:53:00
7:53 AM,41.0,30.9,67,29.89,10.0,NW,12.7,-,N/A,,Clear,310,2012-11-04 12:53:00
8:53 AM,44.1,34.0,68,29.90,10.0,NW,8.1,-,N/A,,Clear,320,2012-11-04 13:53:00
9:53 AM,46.0,33.1,61,29.89,10.0,NNW,12.7,-,N/A,,Clear,330,2012-11-04 14:53:00
10:53 AM,48.0,34.0,58,29.88,10.0,WNW,9.2,-,N/A,,Clear,290,2012-11-04 15:53:00
11:53 AM,50.0,34.0,54,29.87,10.0,NW,8.1,-,N/A,,Clear,320,2012-11-04 16:53:00
12:53 PM,51.1,34.0,52,29.86,10.0,NW,6.9,-,N/A,,Clear,310,2012-11-04 17:53:00
1:53 PM,53.1,35.1,50,29.85,10.0,NNW,4.6,-,N/A,,Clear,330,2012-11-04 18:53:00
2:53 PM,53.1,35.1,50,29.85,10.0,Calm,Calm,-,N/A,,Clear,0,2012-11-04 19:53:00
3:53 PM,51.1,35.1,54,29.86,10.0,Calm,Calm,-,N/A,,Clear,0,2012-11-04 20:53:00
4:53 PM,50.0,36.0,59,29.87,10.0,Calm,Calm,-,N/A,,Overcast,0,2012-11-04 21:53:00
5:53 PM,48.9,34.0,56,29.88,10.0,NW,8.1,-,N/A,,Overcast,320,2012-11-04 22:53:00
6:53 PM,45.0,33.1,63,29.90,10.0,North,6.9,-,N/A,,Mostly Cloudy,350,2012-11-04 23:53:00
7:53 PM,42.1,32.0,67,29.93,10.0,NNW,11.5,-,N/A,,Clear,330,2012-11-05 00:53:00
8:53 PM,41.0,30.9,67,29.93,10.0,NNW,8.1,-,N/A,,Clear,330,2012-11-05 01:53:00
9:53 PM,39.9,30.0,68,29.93,10.0,NNW,6.9,-,N/A,,Clear,330,2012-11-05 02:53:00
10:53 PM,39.9,30.9,70,29.92,10.0,NNW,8.1,-,N/A,,Clear,340,2012-11-05 03:53:00